Tracking 28348 objects as of 8-Dec-2023
HD Live streaming from Space Station
objects crossing your sky now

STARLINK-30473

Track STARLINK-30473 now!
10-day predictions
STARLINK-30473 is classified as:


NORAD ID: 57893
Int'l Code: 2023-146C
Perigee: 565.2 km
Apogee: 567.2 km
Inclination: 43.0 °
Period: 95.8 minutes
Semi major axis: 6937 km
RCS: Unknown
Launch date: September 20, 2023
Source: United States (US)
Launch site: AIR FORCE EASTERN TEST RANGE (AFETR)
Your satellite tracking list
Your tracking list is empty




NASA's NSSDC Master Catalog

Two Line Element Set (TLE):
1 57893U 23146C   23341.76849536  .00008801  00000-0  66577-3 0  9990
2 57893  43.0017 104.2928 0001441 271.8893  88.1784 15.02536461 13073
Source of the keplerian elements: AFSPC